Weather History for Corvallis, OR

Change the Weather History Date:

Monday, September 30, 2013

  Actual Average Record
Temperature  
Mean Temperature 56 °F -  
Max Temperature 60 °F 72 °F 87 °F (2001)
Min Temperature 50 °F 47 °F 39 °F (2002)
Degree Days  
Heating Degree Days 10    
Growing Degree Days 6 (Base 50)    
Moisture  
Dew Point 49 °F    
Average Humidity 84    
Maximum Humidity 94    
Minimum Humidity 68    
Precipitation  
Precipitation 0.27 in - - ()
Sea Level Pressure  
Sea Level Pressure 29.92 in    
Wind  
Wind Speed 12 mph (South)    
Max Wind Speed 21 mph    
Max Gust Speed 26 mph    
Visibility 10 miles    
Events      
Averages and records for this station are not official NWS values.
T = Trace of Precipitation, MM = Missing Value Source: NWS Daily Summary

Daily Weather History Graph

Daily Weather History Graph

Search for Another Location

Airport:

Trip Planner

Search our weather history database for the weather conditions in past years. The results will help you decide how hot, cold, wet, or windy it might be!

Date:

Astronomy

Sep. 30, 2013 Rise Set
Actual Time 7:10 AM PDT 6:55 PM PDT
Civil Twilight 6:41 AM PDT 7:23 PM PDT
Nautical Twilight 6:07 AM PDT 7:57 PM PDT
Astronomical Twilight 5:33 AM PDT 8:31 PM PDT
Moon 2:43 AM PDT (9/30) 4:36 PM PDT (9/30)
Length of Visible Light 12h 42m
Length of Day
11h 44m
Waning Crescent, 18% of the Moon is Illuminated
Sep 30
Waning Crescent
Oct 4
New
Oct 11
First Quarter
Oct 18
Full
Oct 26
Last Quarter

Hourly Weather History & Observations

Time (PDT) Temp. Dew Point Humidity Pressure Visibility Wind Dir Wind Speed Gust Speed Precip Events Conditions
12:15 AM 53.6 °F 44.6 °F 72% 29.68 in 10.0 mi WSW 5.8 mph - N/A   Scattered Clouds
12:35 AM 53.6 °F 46.4 °F 77% 29.70 in 10.0 mi SSE 9.2 mph - N/A   Overcast
12:55 AM 53.6 °F 46.4 °F 77% 29.71 in 10.0 mi SE 11.5 mph - N/A   Overcast
1:15 AM 51.8 °F 46.4 °F 82% 29.73 in 10.0 mi SSE 12.7 mph - N/A   Overcast
1:35 AM 53.6 °F 46.4 °F 77% 29.74 in 10.0 mi SSE 13.8 mph - N/A   Overcast
1:55 AM 53.6 °F 46.4 °F 77% 29.75 in 10.0 mi SSE 12.7 mph 17.3 mph N/A   Overcast
2:15 AM 53.6 °F 46.4 °F 77% 29.76 in 10.0 mi South 13.8 mph - N/A   Overcast
2:35 AM 53.6 °F 44.6 °F 72% 29.77 in 10.0 mi South 12.7 mph - N/A   Overcast
2:55 AM 51.8 °F 46.4 °F 82% 29.77 in 10.0 mi South 13.8 mph - N/A   Mostly Cloudy
3:15 AM 51.8 °F 46.4 °F 82% 29.77 in 10.0 mi South 11.5 mph - N/A   Mostly Cloudy
3:35 AM 51.8 °F 46.4 °F 82% 29.77 in 10.0 mi South 13.8 mph - N/A   Overcast
3:55 AM 51.8 °F 46.4 °F 82% 29.78 in 10.0 mi South 12.7 mph - N/A   Overcast
4:15 AM 51.8 °F 46.4 °F 82% 29.78 in 10.0 mi South 15.0 mph - N/A   Overcast
4:35 AM 51.8 °F 48.2 °F 88% 29.79 in 10.0 mi South 16.1 mph - N/A   Overcast
4:55 AM 51.8 °F 48.2 °F 88% 29.80 in 9.0 mi South 13.8 mph - 0.01 in   Overcast
5:15 AM 51.8 °F 48.2 °F 88% 29.81 in 10.0 mi South 12.7 mph - 0.03 in   Mostly Cloudy
5:35 AM 51.8 °F 48.2 °F 88% 29.80 in 10.0 mi South 13.8 mph - 0.03 in   Overcast
5:55 AM 51.8 °F 48.2 °F 88% 29.80 in 10.0 mi South 15.0 mph - 0.03 in   Mostly Cloudy
6:15 AM 51.8 °F 48.2 °F 88% 29.81 in 10.0 mi South 17.3 mph - N/A   Mostly Cloudy
6:35 AM 51.8 °F 48.2 °F 88% 29.82 in 10.0 mi South 16.1 mph - N/A   Mostly Cloudy
6:55 AM 51.8 °F 48.2 °F 88% 29.83 in 10.0 mi South 15.0 mph 20.7 mph N/A   Overcast
7:15 AM 51.8 °F 48.2 °F 88% 29.84 in 10.0 mi South 18.4 mph 26.5 mph 0.01 in   Overcast
7:35 AM 51.8 °F 48.2 °F 88% 29.85 in 10.0 mi South 16.1 mph - 0.01 in   Overcast
7:55 AM 51.8 °F 48.2 °F 88% 29.85 in 10.0 mi South 17.3 mph - 0.01 in   Overcast
8:15 AM 51.8 °F 48.2 °F 88% 29.87 in 10.0 mi South 19.6 mph 24.2 mph N/A   Overcast
8:35 AM 51.8 °F 48.2 °F 88% 29.87 in 10.0 mi South 17.3 mph - N/A   Overcast
8:55 AM 51.8 °F 48.2 °F 88% 29.88 in 10.0 mi South 15.0 mph - N/A   Overcast
9:15 AM 51.8 °F 50.0 °F 94% 29.89 in 10.0 mi South 16.1 mph - 0.01 in   Overcast
9:35 AM 53.6 °F 50.0 °F 88% 29.91 in 10.0 mi South 18.4 mph 21.9 mph 0.01 in   Overcast
9:55 AM 53.6 °F 51.8 °F 94% 29.91 in 10.0 mi South 18.4 mph 24.2 mph 0.01 in   Overcast
10:15 AM 53.6 °F 51.8 °F 94% 29.92 in 10.0 mi South 20.7 mph - N/A   Overcast
10:35 AM 55.4 °F 51.8 °F 88% 29.92 in 10.0 mi South 17.3 mph - N/A   Mostly Cloudy
10:55 AM 55.4 °F 51.8 °F 88% 29.93 in 10.0 mi South 17.3 mph 23.0 mph N/A   Mostly Cloudy
11:15 AM 59.0 °F 51.8 °F 77% 29.94 in 10.0 mi SSW 18.4 mph - N/A   Mostly Cloudy
11:35 AM 55.4 °F 51.8 °F 88% 29.95 in 5.0 mi SSW 16.1 mph - 0.05 in   Overcast
11:55 AM 55.4 °F 51.8 °F 88% 29.95 in 5.0 mi SSW 13.8 mph - 0.07 in   Overcast
12:15 PM 55.4 °F 51.8 °F 88% 29.95 in 10.0 mi SSW 15.0 mph - N/A   Mostly Cloudy
12:35 PM 55.4 °F 51.8 °F 88% 29.96 in 10.0 mi SSW 17.3 mph 23.0 mph N/A   Scattered Clouds
12:55 PM 59.0 °F 51.8 °F 77% 29.96 in 10.0 mi SW 16.1 mph - N/A   Scattered Clouds
1:15 PM 60.8 °F 53.6 °F 77% 29.97 in 10.0 mi SW 18.4 mph 21.9 mph N/A   Scattered Clouds
1:35 PM 57.2 °F 51.8 °F 82% 29.98 in 10.0 mi SW 11.5 mph 20.7 mph N/A   Mostly Cloudy
1:55 PM 55.4 °F 51.8 °F 88% 29.99 in 10.0 mi WSW 11.5 mph - 0.08 in   Overcast
2:15 PM 55.4 °F 51.8 °F 88% 29.99 in 10.0 mi SW 10.4 mph 17.3 mph 0.02 in   Overcast
2:35 PM 55.4 °F 48.2 °F 77% 29.98 in 10.0 mi WSW 15.0 mph 19.6 mph 0.02 in   Overcast
2:55 PM 55.4 °F 50.0 °F 82% 29.98 in 10.0 mi WSW 12.7 mph - 0.02 in   Overcast
3:15 PM 57.2 °F 48.2 °F 72% 29.99 in 10.0 mi WSW 16.1 mph - N/A   Overcast
3:35 PM 55.4 °F 48.2 °F 77% 30.00 in 10.0 mi WSW 18.4 mph 24.2 mph N/A   Overcast
3:55 PM 55.4 °F 50.0 °F 82% 30.00 in 10.0 mi SW 13.8 mph - N/A   Overcast
4:15 PM 55.4 °F 50.0 °F 82% 30.00 in 10.0 mi WSW 12.7 mph 23.0 mph N/A   Overcast
4:35 PM 60.8 °F 51.8 °F 72% 30.01 in 10.0 mi WSW 13.8 mph - N/A   Overcast
4:55 PM 60.8 °F 50.0 °F 68% 30.01 in 10.0 mi SSW 8.1 mph - N/A   Overcast
5:15 PM 60.8 °F 50.0 °F 68% 30.01 in 10.0 mi SSW 10.4 mph - N/A   Overcast
5:35 PM 57.2 °F 50.0 °F 77% 30.02 in 10.0 mi South 10.4 mph - N/A   Overcast
5:55 PM 57.2 °F 50.0 °F 77% 30.01 in 10.0 mi South 8.1 mph - N/A   Overcast
6:15 PM 55.4 °F 48.2 °F 77% 30.01 in 10.0 mi South 10.4 mph - N/A   Mostly Cloudy
6:35 PM 55.4 °F 48.2 °F 77% 30.01 in 10.0 mi South 10.4 mph - N/A   Overcast
6:55 PM 53.6 °F 48.2 °F 82% 30.02 in 10.0 mi South 11.5 mph - N/A   Overcast
7:15 PM 53.6 °F 50.0 °F 88% 30.02 in 10.0 mi South 9.2 mph - N/A   Overcast
7:35 PM 53.6 °F 48.2 °F 82% 30.02 in 10.0 mi South 6.9 mph - 0.01 in   Overcast
7:55 PM 51.8 °F 50.0 °F 94% 30.02 in 10.0 mi South 9.2 mph - 0.01 in   Overcast
8:15 PM 51.8 °F 48.2 °F 88% 30.03 in 10.0 mi South 11.5 mph - N/A   Mostly Cloudy
8:35 PM 51.8 °F 46.4 °F 82% 30.03 in 10.0 mi South 11.5 mph - N/A   Partly Cloudy
8:55 PM 51.8 °F 48.2 °F 88% 30.03 in 10.0 mi South 9.2 mph - N/A   Mostly Cloudy
9:15 PM 51.8 °F 48.2 °F 88% 30.04 in 10.0 mi SSW 6.9 mph - N/A   Mostly Cloudy
9:35 PM 51.8 °F 48.2 °F 88% 30.04 in 10.0 mi WSW 4.6 mph - 0.01 in   Overcast
9:55 PM 51.8 °F 48.2 °F 88% 30.04 in 10.0 mi SSW 5.8 mph - 0.02 in   Overcast
10:15 PM 51.8 °F 48.2 °F 88% 30.04 in 10.0 mi South 6.9 mph - N/A   Overcast
10:35 PM 51.8 °F 48.2 °F 88% 30.04 in 10.0 mi South 4.6 mph - 0.01 in   Overcast
10:55 PM 51.8 °F 48.2 °F 88% 30.05 in 10.0 mi Calm Calm - 0.01 in   Overcast
11:15 PM 51.8 °F 48.2 °F 88% 30.04 in 10.0 mi Calm Calm - N/A   Mostly Cloudy
11:35 PM 51.8 °F 48.2 °F 88% 30.03 in 10.0 mi South 5.8 mph - N/A   Overcast
11:55 PM 50.0 °F 48.2 °F 94% 30.03 in 10.0 mi South 6.9 mph - N/A   Overcast